Regional Weather Roundup
Issued by NWS Memphis, TN

Home | Current Version | Previous Version | Text Only | Print | Product List | Glossary On
Versions: 1 2 3 4 5 6 7 8 9 10 11 12 13 14 15 16 17 18 19 20 21 22 23 24 25 26 27 28 29 30 31 32 33 34 35 36 37 38 39 40 41 42 43 44 45 46 47 48 49 50
000
ASUS44 KMEG 221410
RWRMEG
MEMPHIS CWA HOURLY WEATHER ROUNDUP
NATIONAL WEATHER SERVICE MEMPHIS TN
900 AM CDT MON SEP 22 2014

...WEST TENNESSEE...

CITY           SKY/WX    TMP DP  RH WIND       PRES   REMARKS
MEMPHIS INTL   SUNNY     66  52  60 NE8       30.22R
NWS MEMPHIS      N/A     63 N/A N/A MISG        N/A
JACKSON        SUNNY     63  53  70 N9        30.22R
LEXINGTON      SUNNY     61  54  77 N7        30.19R
SAVANNAH       SUNNY     63  55  77 NE8       30.19R
DYERSBURG      SUNNY     63  46  55 NE10      30.24S
UNION CITY     SUNNY     57  54  88 N7        30.23R
PARIS          SUNNY     57  52  82 N8        30.23R
HUNTINGDON     SUNNY     59  52  77 VRB7      30.22R


...EASTERN ARKANSAS...

CITY           SKY/WX    TMP DP  RH WIND       PRES   REMARKS
JONESBORO      SUNNY     65  52  62 NE9       30.24R
WEST MEMPHIS   SUNNY     63  55  75 N13       30.21R
BATESVILLE     SUNNY     63  52  67 CALM      30.26R
NEWPORT        SUNNY     63  53  69 NE15      30.26R
WALNUT RIDGE   SUNNY     61  30  31 N10       30.24R
BLYTHEVILLE    SUNNY     63  56  78 NE9       30.23R
NW BLYTHEVILLE SUNNY     61  54  77 N13       30.24R
SEARCY         SUNNY     65  53  65 NE10      30.26R
STUTTGART      SUNNY     64  54  68 N12       30.23S
PINE BLUFF     SUNNY     65  53  65 N10       30.22R
MONTICELLO     SUNNY     67  53  61 NE8       30.19R


...NORTH MISSISSIPPI...

CITY           SKY/WX    TMP DP  RH WIND       PRES   REMARKS
TUPELO         SUNNY     65  54  67 NE8       30.16R
OXFORD         SUNNY     63  52  67 NE12      30.20R
TUNICA         SUNNY     64  55  72 NE9       30.21R
CLARKSDALE     SUNNY     66  54  63 NE14      30.20S
CORINTH        SUNNY     64  52  63 VRB6      30.18R
GRENADA        SUNNY     66  52  59 NE8       30.17R
GREENWOOD      SUNNY     69  56  62 N6        30.16R
COLUMBUS       SUNNY     68  54  60 N10       30.14R
STARKVILLE     FAIR      66  55  68 N7        30.14R
GOLDEN TRIANGL SUNNY     68  54  60 N12       30.14R


...SOUTHEAST MISSOURI...

CITY           SKY/WX    TMP DP  RH WIND       PRES   REMARKS
WEST PLAINS    SUNNY     60  50  69 NE8       30.30R
POPLAR BLUFF   SUNNY     62  51  67 NE9       30.25R
CAPE GIRARDEAU SUNNY     61  53  75 NE7       30.26R


...NORTHWEST ALABAMA...

CITY           SKY/WX    TMP DP  RH WIND       PRES   REMARKS
MUSCLE SHOALS  SUNNY     66  52  60 NE8       30.17R


...MIDDLE TENNESSEE...

CITY           SKY/WX    TMP DP  RH WIND       PRES   REMARKS
NASHVILLE      SUNNY     64  51  62 NE10      30.20R
CLARKSVILLE    SUNNY     61  53  75 NE8       30.22R
DICKSON        SUNNY     59  52  77 NE8       30.20R
COLUMBIA       SUNNY     64  55  72 NE8       30.17R
LEWISBURG      SUNNY     61  53  74 NE8       30.17R


...WESTERN KENTUCKY...

CITY           SKY/WX    TMP DP  RH WIND       PRES   REMARKS
PADUCAH        SUNNY     63  53  70 NE7       30.23S
FORT CAMPBELL  SUNNY     61  55  79 N9        30.22R


...CENTRAL ARKANSAS...

CITY           SKY/WX    TMP DP  RH WIND       PRES   REMARKS
LITTLE ROCK    SUNNY     66  50  56 NE13      30.25R


SKY/WX REPORTED AS FAIR MEANS FEW OR NO CLOUDS BELOW
12 THOUSAND FEET.




USA.gov is the U.S. government's official web portal to all federal, state and local government web resources and services.